Terug naar catalogus

FENGYUN 1C DEB

ActiefSSO
NORAD 36226·DEBRIS·🇨🇳 China

Gelanceerd May 10, 1999 vanaf Taiyuan Satellite Launch Center

Loading…

Volgende Passages (komende 24 uur)

TLE

VerouderendSource: Space-Track

Epoch: Sep 11, 2026, 07:41 UTC

1 36226U 99025DVB 26254.32037620  .00001303  00000-0  71258-3 0  9999
2 36226  98.5915 290.2590 0093354 324.4310  35.0662 14.11451785676060

Volg FENGYUN 1C DEB in realtime met AllMySat

Download on the App Store